Regional Weather Roundup
Issued by NWS Bismarck, ND

Home | Current Version | Previous Version | Text Only | Print | Product List | Glossary On
Versions: 1 2 3 4 5 6 7 8 9 10 11 12 13 14 15 16 17 18 19 20 21 22 23 24 25 26 27 28 29 30 31 32 33 34 35 36 37 38 39 40 41 42 43 44 45 46 47 48 49 50
000
ASUS43 KBIS 042310
RWRBIS

NWR BROADCAST TEXT
NATIONAL WEATHER SERVICE BISMARCK ND
600 PM CDT WED MAY 04 2016

NOTE: "FAIR" INDICATES FEW OR NO CLOUDS BELOW 12,000 FEET WITH NO
SIGNIFICANT WEATHER AND/OR OBSTRUCTIONS TO VISIBILITY.


CITY           SKY/WX    TMP DP  RH WIND       PRES   REMARKS
WILLISTON      SUNNY     84  36  18 SW14      29.89F
MINOT          SUNNY     88  36  15 SW12      29.89F
MINOT AFB      MOSUNNY   85  39  19 W10       29.88S
BISMARCK       SUNNY     80  43  26 MISG      29.97F
DICKINSON      SUNNY     79  35  20 SW13      29.95F
GARRISON         N/A     82  40  22 S8        29.93F
HETTINGER ARPT SUNNY     77  41  27 S12       30.01F
JAMESTOWN      SUNNY     73  36  25 NW5       29.98F
BEACH          FAIR      81  32  17 S16       29.98F
CARRINGTON     FAIR      77  34  20 SW8       29.99F
HAZEN          FAIR      81  37  21 SW7       29.95F
LINTON         FAIR      77  45  31 SW3       30.02F
MANDAN         FAIR      77  41  27 S10G16    29.98F
OAKES            N/A    N/A N/A N/A MISG        N/A
RUGBY          FAIR      81  39  22 S10G16    29.92F
STANLEY        FAIR      82  37  20 SW17      29.94F
TIOGA          FAIR      82  34  17 SW17G28   29.96F
WATFORD CITY   FAIR      82  36  18 SW13G21   29.92F
$$

CITY           SKY/WX    TMP DP  RH WIND       PRES   REMARKS
GRAND FORKS    MOSUNNY   71  30  21 S3        29.96F
GRAND FORKS AF SUNNY     70  27  19 VRB3      29.97F
DEVILS LAKE    MOSUNNY   72  38  29 SE8       29.96F
FARGO          SUNNY     70  26  19 N7        29.98S
CANDO          FAIR      75  36  23 S15       29.96F
CAVALIER       FAIR      72  34  25 S8        29.94F
GRAFTON        FAIR      70  30  23 VRB7      29.97F
GWINNER        FAIR      72  28  20 W3        30.00F
LANGDON        FAIR      73  34  23 SW9G16    29.95F
ROLLA          FAIR      77  36  22 SW13      29.94F
WALHALLA       FAIR      75  36  23 SW7       29.93F
$$

CITY           SKY/WX    TMP DP  RH WIND       PRES   REMARKS
ABERDEEN       SUNNY     75  33  21 N9        30.01F
MOBRIDGE       SUNNY     76  43  30 SE8       29.99F
BUFFALO          N/A     78  38  23 S14G24    29.95F
RAPID CITY     SUNNY     75  42  30 S14       30.04F
GLASGOW        SUNNY     85  38  18 SW7       29.85F
SIDNEY         SUNNY     82  37  20 SW15      29.89F
WOLF POINT     SUNNY     86  42  21 SW13      29.86F
GLENDIVE       SUNNY     82  39  21 S5        29.94F
MILES CITY     SUNNY     84  31  14 SW8       29.90F
BAKER          SUNNY     80  37  21 S14G20    29.98F
$$

CITY           SKY/WX    TMP DP  RH WIND       PRES   REMARKS
BILLINGS       CLOUDY    83  27  13 W12       29.94F
GREAT FALLS    SUNNY     80  31  16 SW13      29.89F
REGINA         MOSUNNY   86  34  15 W13G26    29.78F
ESTEVAN        PTSUNNY   84  39  20 SW20G26   29.86F
$$





USA.gov is the U.S. government's official web portal to all federal, state and local government web resources and services.